Regional Weather Roundup
Issued by NWS Upton, NY

Current Version | Previous Version | Graphics & Text | Print | Product List | Glossary Off
Versions: 1 2 3 4 5 6 7 8 9 10 11 12 13 14 15 16 17 18 19 20 21 22 23 24 25 26 27 28 29 30 31 32 33 34 35 36 37 38 39 40 41 42 43 44 45 46 47 48 49 50

000
ASUS41 KOKX 251208
RWROKX

REGIONAL WEATHER ROUNDUP
NATIONAL WEATHER SERVICE NEW YORK NY
800 AM EDT SAT MAR 25 2017

NOTE: "FAIR" INDICATES FEW OR NO CLOUDS BELOW 12,000 FEET WITH NO
SIGNIFICANT WEATHER AND/OR OBSTRUCTIONS TO VISIBILITY.

NYZ071-072-176-178-NJZ106-104-251300-
NEW YORK CITY METRO AREA

CITY           SKY/WX    TMP DP  RH WIND       PRES   REMARKS
Central Park   MOSUNNY   52  38  58 CALM      30.16R
Wall St Helipt MOSUNNY   52  37  58 SW6       30.15R
LaGuardia APRT CLOUDY    53  38  56 SW3       30.13R
Kennedy INTL   CLOUDY    55  41  59 W6        30.15R
Breezy Point     N/A     50 N/A N/A NW5         N/A
Newark/Liberty CLOUDY    52  39  61 SW3       30.14R
Teterboro      CLOUDY    48  38  68 NW3       30.14R
$$

NYZ177-179-078>081-251300-
LONG ISLAND NEW YORK

CITY           SKY/WX    TMP DP  RH WIND       PRES   REMARKS
Jones Beach      N/A     48 N/A N/A SE1         N/A
Matinecock PT    N/A     48 N/A N/A SE1         N/A
Farmingdale    CLOUDY    49  39  68 CALM      30.14R
MacArthur/ISP  PTSUNNY   49  41  74 CALM      30.13R
Shirley        CLOUDY    45  41  86 CALM      30.15R
Westhampton    CLOUDY    47  40  76 N3        30.16R
East Hampton     N/A     43  38  82 CALM      30.14S
Montauk          N/A     44  41  89 CALM      30.15S
$$

NYZ052-065-067-251300-
HUDSON VALLEY

CITY           SKY/WX    TMP DP  RH WIND       PRES   REMARKS
White Plains   CLOUDY    44  36  73 CALM      30.12R
Newburgh       PTSUNNY   39  36  87 VRB5      30.14R
Montgomery     CLOUDY    36  33  89 N5        30.13R WCI  32
Poughkeepsie   CLOUDY    36  33  89 N3        30.14R
Albany         CLOUDY    36  33  89 N8        30.19R WCI  30
$$

NJZ001-105-106-008-010-013-015-019>022-104-251300-
NEW JERSEY

CITY           SKY/WX    TMP DP  RH WIND       PRES   REMARKS
Newark/Liberty CLOUDY    52  39  61 SW3       30.14R
Teterboro      CLOUDY    48  38  68 NW3       30.14R
Caldwell       CLOUDY    47  37  68 NE3       30.14R
Somerville     CLOUDY    42  36  79 CALM      30.12R
Linden           N/A     49  38  65 CALM      30.14R
Sussex         CLOUDY    39  35  86 CALM      30.14R
Andover          N/A     40  35  83 CALM      30.13R
Trenton        CLOUDY    50  42  74 CALM      30.13R
Millville      MOSUNNY   56  49  77 SW8       30.18R
Atlantic City  CLOUDY    58  46  64 SW10      30.17R
Wrightstown    CLOUDY    57  47  67 SW8       30.12R
Toms River     CLOUDY    56  47  71 SW10      30.15R
Belmar         CLOUDY    56  45  66 SW9       30.15R
$$

PAZ047>061-062-071-251300-
EASTERN PENNSYLVANIA

CITY           SKY/WX    TMP DP  RH WIND       PRES   REMARKS
Philadelphia   CLOUDY    53  46  77 SW9       30.16R
Allentown      PTSUNNY   46  37  71 SW3       30.12R
Scranton       CLOUDY    43  38  82 N3        30.13R
$$

CTZ002-004>006-009-010-012-RIZ004-006-007-MAZ004-011-015-251300-
SOUTHERN NEW ENGLAND
 IN CT

CITY           SKY/WX    TMP DP  RH WIND       PRES   REMARKS
Bradley INTL   CLOUDY    38  34  85 N9        30.14R WCI  31
Hartford       CLOUDY    39  35  86 CALM      30.14R
Danbury        CLOUDY    38  35  89 CALM      30.14R
Wtrbury/Oxford CLOUDY    43  32  65 CALM      30.13R
Bridgeport     CLOUDY    43  35  73 CALM      30.14R
Meriden        CLOUDY    39  34  82 CALM      30.14R
New Haven      CLOUDY    41  37  86 S3        30.14R
Chester        NOT AVBL
Groton         CLOUDY    41  37  86 CALM      30.14R
Wilimantic     LGT RAIN  39  33  79 CALM      30.14R

 IN RI

CITY           SKY/WX    TMP DP  RH WIND       PRES   REMARKS
Providence     LGT RAIN  44  35  70 NE6       30.16R
Block Island   CLOUDY    46  39  76 W7        30.15S
Westerly       MOSUNNY   42  38  85 CALM      30.15R
 IN MA

CITY           SKY/WX    TMP DP  RH WIND       PRES   REMARKS
Boston         CLOUDY    42  38  85 N5        30.17R
Worcester      CLOUDY    39  33  79 NE6       30.12R WCI  35
Westfield      CLOUDY    37  34  89 N7        30.15R WCI  32
Provincetown   LGT RAIN  40  38  93 N6        30.19R
Nantucket      SUNNY     46  39  76 NW9       30.15R
$$

ANZ330-335-338-340-345-350-353-355-251300-
COASTAL MARINE OBSERVATIONS


STATION/POSITION TIME  SKY/WX   TEMP    WIND        PRES    VSBY  WAVE
                                AIR SEA DIR/SP/G                  HT/PER
                 (UTC)          (F)     (DEG/KT/KT) (MB)    (MI)  (FT/S)
NY HARB ENTRANCE 1050            47 42  210/  6/  6 1019.4          4/ 7
20 S FIRE ISLAND 1150            46 40  250/ 10/ 12 1020.1          6/ 8
GREAT SOUTH BAY  NOT AVBL
23 SSW MONTAUK P 1050            44 43              1020.5          6/ 8
15 E BARNEGAT LI 1130               42                N/A           6/ 7
HUDSON CANYON    1050            49 45  230/ 17/ 19 1020.7          8/ 8
KINGS POINT      1136            48 38              1020.1
EXECUTION ROCKS  NOT AVBL
CENTRAL LI SOUND 1053            41     110/  4/  6   N/A           0
EASTERN LI SOUND NOT AVBL
ROBBINS REEF     1136            51     310/  4/  5 1020.6
$$


>>>>>>>>>>>>>>>>>>>>>>>>>>>> KEY <<<<<<<<<<<<<<<<<<<<<<<<<<<
>                                                          <
>     SKY/WX - Sky Condition/Present Weather               <
>     TMP    - Temperature in Fahrenheit                   <
>     DP     - Dew Point in Fahrenheit                     <
>     RH     - Relative Humidity in Percent                <
>     WIND   - Direction (from) and Speed in MPH           <
>     PRES   - Mean Sea Level Pressure (inches of Hg)      <
>     WCI    - Wind Chill Index                            <
>     VSB    - VISIBILITY IN MILES                         <
>     HX     - HEAT INDEX                                  <
>     TC     - TEMPERATURE IN CELSIUS                      <
>     VRB    - VARIABLE WIND DIRECTION                     <
>                                                          <
>>>>>>>>>>>>>>>>>>>>>>>>>>>> KEY <<<<<<<<<<<<<<<<<<<<<<<<<<<



USA.gov is the U.S. government's official web portal to all federal, state and local government web resources and services.